Location: Newark
(51.2625°N, 13.3939°E)
Time: 20:48:08
(UTC+00:00)

Explorer 7 - Pass Details

Date: 18 November 2019
Orbit: 485 x 680 km, 50.3° (Epoch: 13 December)

Event Time Altitude Azimuth Distance (km) Brightness Sun altitude
Rises 00:40:29 0° 239° (WSW) 2,907 - -51.3°
Reaches altitude 10° 00:42:54 10° 235° (SW) 1,970 - -51.1°
Maximum altitude 00:47:17 52° 160° (SSE) 737 - -50.6°
Drops below altitude 10° 00:51:24 10° 84° (E) 1,853 - -50.1°
Sets 00:53:36 0° 79° (E) 2,716 - -49.9°
